Regional Weather Roundup
Issued by NWS

Home | Current Version | Previous Version | Graphics & Text | Print | Product List | Glossary On
Versions: 1 2 3 4 5 6 7 8 9 10 11 12 13 14 15 16 17 18 19 20 21 22 23 24 25 26 27 28 29 30 31 32 33 34 35 36 37 38 39 40 41 42 43 44 45 46 47 48 49 50
671
ASUS45 KCYS 260610
RWRWY

WYOMING REGIONAL WEATHER ROUNDUP
NATIONAL WEATHER SERVICE CHEYENNE WY
1200 AM MDT MON JUN 26 2017

NOTE:  "FAIR" INDICATES FEW OR NO CLOUDS BELOW 12,000 FEET
WITH NO SIGNIFICANT WEATHER AND/OR OBSTRUCTIONS TO VISIBILITY.

WYZ001-260700-
YELLOWSTONE NATIONAL PARK

CITY           SKY/WX    TMP DP  RH WIND       PRES   REMARKS
LK YELLOWSTONE   N/A     44  36  73 CALM      30.44S
6HR MIN TEMP:  44; 6HR MAX TEMP:  70;

W YELLOWSTONE  NOT AVBL

$$
WYZ002>013-054>058-071-098>099-260700-
NORTHERN WYOMING

CITY           SKY/WX    TMP DP  RH WIND       PRES   REMARKS
JACKSON        FAIR      46  39  76 N8        30.33S
CODY           FAIR      56  35  45 S6        30.30R
GREYBULL       FAIR      66  31  27 CALM      30.20R
6HR MIN TEMP:  65; 6HR MAX TEMP:  83;

WORLAND        FAIR      63  37  38 SE10      30.22R
6HR MIN TEMP:  58; 6HR MAX TEMP:  81;

SHERIDAN       FAIR      48  41  76 SW7       30.24F
6HR MIN TEMP:  48; 6HR MAX TEMP:  77;

BUFFALO        FAIR      57  37  47 W8        30.31F
6HR MIN TEMP:  53; 6HR MAX TEMP:  73;

GILLETTE       FAIR      44  34  67 S6        30.27S
6HR MIN TEMP:  44; 6HR MAX TEMP:  76;

NEWCASTLE      FAIR      63  25  23 NE7       30.26S

$$
WYZ014>020-022>026-101>103-260700-
CENTRAL WYOMING

CITY           SKY/WX    TMP DP  RH WIND       PRES   REMARKS
BIG PINEY      FAIR      54  39  57 N3        30.37R
6HR MIN TEMP:  54; 6HR MAX TEMP:  78;

PINEDALE       FAIR      50  41  71 NW7       30.37S
DUBOIS         FAIR      54  36  50 W6        30.40S
LANDER         FAIR      63  34  33 W10       30.29S
6HR MIN TEMP:  61; 6HR MAX TEMP:  79;

RIVERTON       FAIR      63  36  36 E10       30.30S
6HR MIN TEMP:  63; 6HR MAX TEMP:  79;

CASPER         FAIR      53  36  52 NE7       30.32R
6HR MIN TEMP:  52; 6HR MAX TEMP:  79;

DOUGLAS        FAIR      52  37  56 S6        30.30R
6HR MIN TEMP:  52; 6HR MAX TEMP:  78;


$$
WYZ021-027>030-104>119-260700-
SOUTHERN WYOMING

CITY           SKY/WX    TMP DP  RH WIND       PRES   REMARKS
EVANSTON       FAIR      66  33  29 SE5       30.35S
6HR MIN TEMP:  63; 6HR MAX TEMP:  81;

KEMMERER         N/A     57  39  51 NW10      30.38S
FORT BRIDGER   FAIR      65  30  26 CALM      30.38S
ROCK SPRINGS   FAIR      61  28  28 E7        30.33R
6HR MIN TEMP:  59; 6HR MAX TEMP:  79;

DIXON          FAIR      59  27  28 E10       30.34F
RAWLINS        FAIR      50  23  34 CALM      30.35S
6HR MIN TEMP:  50; 6HR MAX TEMP:  77;

SARATOGA       FAIR      54  27  35 SW3       30.37S
LARAMIE        FAIR      51  46  83 SE8       30.39S
6HR MIN TEMP:  51; 6HR MAX TEMP:  73;

CHEYENNE       FAIR      55  51  86 S12       30.35F
6HR MIN TEMP:  55; 6HR MAX TEMP:  71;

TORRINGTON     FAIR      57  46  66 SE6       30.23R
6HR MIN TEMP:  57; 6HR MAX TEMP:  79;

PINE BLUFFS    FAIR      54  54 100 S12       30.31F

$$




USA.gov is the U.S. government's official web portal to all federal, state and local government web resources and services.